TimeCDT,TemperatureF,Dew PointF,Humidity,Sea Level PressureIn,VisibilityMPH,Wind Direction,Wind SpeedMPH,Gust SpeedMPH,PrecipitationIn,Events,Conditions,WindDirDegrees,DateUTC
12:53 AM,55.0,41.0,59,29.96,10.0,WSW,6.9,-,N/A,,Clear,250,2012-10-31 05:53:00
1:53 AM,55.0,41.0,59,29.96,10.0,WSW,6.9,-,N/A,,Clear,250,2012-10-31 06:53:00
2:53 AM,55.0,42.1,62,29.96,10.0,WSW,6.9,-,N/A,,Clear,250,2012-10-31 07:53:00
3:53 AM,53.1,43.0,69,29.95,10.0,WSW,4.6,-,N/A,,Clear,250,2012-10-31 08:53:00
4:53 AM,52.0,43.0,71,29.96,10.0,West,5.8,-,N/A,,Clear,260,2012-10-31 09:53:00
5:53 AM,50.0,43.0,77,29.96,10.0,West,4.6,-,N/A,,Clear,270,2012-10-31 10:53:00
6:53 AM,48.0,43.0,83,29.98,10.0,Calm,Calm,-,N/A,,Clear,0,2012-10-31 11:53:00
7:53 AM,46.0,42.1,86,29.99,10.0,Calm,Calm,-,N/A,,Clear,0,2012-10-31 12:53:00
8:53 AM,53.1,46.0,77,30.00,10.0,Calm,Calm,-,N/A,,Partly Cloudy,0,2012-10-31 13:53:00
9:53 AM,60.1,46.0,60,29.98,10.0,West,3.5,-,N/A,,Partly Cloudy,260,2012-10-31 14:53:00
10:53 AM,63.0,48.0,58,29.99,-9999.0,North,4.6,-,0.10,,Scattered Clouds,350,2012-10-31 15:53:00
11:53 AM,64.0,48.0,56,30.00,-9999.0,Variable,5.8,-,N/A,,Scattered Clouds,0,2012-10-31 16:53:00
12:53 PM,66.0,48.0,52,29.99,-9999.0,North,4.6,-,N/A,,Mostly Cloudy,360,2012-10-31 17:53:00
1:53 PM,66.0,44.1,45,29.98,-9999.0,ENE,6.9,-,N/A,,Clear,70,2012-10-31 18:53:00
2:53 PM,69.1,42.1,38,29.96,-9999.0,Variable,4.6,-,N/A,,Clear,0,2012-10-31 19:53:00
3:53 PM,69.1,41.0,36,29.96,-9999.0,ENE,6.9,-,N/A,,Clear,60,2012-10-31 20:53:00
4:53 PM,69.1,42.1,38,29.97,-9999.0,NE,3.5,-,N/A,,Clear,50,2012-10-31 21:53:00
5:53 PM,63.0,46.9,56,29.97,-9999.0,Calm,Calm,-,N/A,,Clear,0,2012-10-31 22:53:00
7:53 PM,52.0,46.9,83,29.99,-9999.0,Calm,Calm,-,N/A,,Clear,0,2012-11-01 00:53:00
8:53 PM,50.0,46.0,86,30.00,-9999.0,Calm,Calm,-,N/A,,Partly Cloudy,0,2012-11-01 01:53:00
9:53 PM,48.9,46.0,90,30.01,-9999.0,Calm,Calm,-,N/A,,Clear,0,2012-11-01 02:53:00
10:53 PM,48.0,44.1,86,30.00,-9999.0,Calm,Calm,-,N/A,,Clear,0,2012-11-01 03:53:00
11:53 PM,46.9,44.1,90,30.01,-9999.0,Calm,Calm,-,N/A,,Clear,0,2012-11-01 04:53:00